Regional Weather Roundup
Issued by NWS

Home | Current Version | Previous Version | Text Only | Print | Product List | Glossary Off
Versions: 1 2 3 4 5 6 7 8 9 10 11 12 13 14 15 16 17 18 19 20 21 22 23 24 25 26 27 28 29 30 31 32 33 34 35 36 37 38 39 40 41 42 43 44 45 46 47 48 49 50

831
ASUS43 KDMX 261701
RWRIA

WEATHER ROUNDUP FOR IOWA
NATIONAL WEATHER SERVICE DES MOINES IA
1200 PM CDT SUN MAR 26 2017

NOTE: "FAIR" INDICATES FEW OR NO CLOUDS BELOW 12,000 FEET WITH NO
SIGNIFICANT WEATHER AND/OR OBSTRUCTIONS TO VISIBILITY.

* - THESE STATIONS ARE NOT NWS STATIONS...THUS NOT UNDER NWS
QUALITY CONTROL.  THEY ALSO DO NOT REPORT WEATHER SUCH
AS PRECIPITATION OR FOG.

IAZ001>003-012>014-020>022-031>034-043>046-261800-
   NORTHWEST IOWA

CITY           SKY/WX    TMP DP  RH WIND       PRES   REMARKS
CARROLL *      CLOUDY    43  43 100 N7        29.89S
CHEROKEE *     CLOUDY    41  40  95 N3        29.91S
LE MARS *      CLOUDY    45  37  76 N7        29.93S
ORANGE CITY *  CLOUDY    41  37  87 NE6       29.92S
SHELDON *      CLOUDY    41  41 100 N9        29.91S
SIOUX CITY     CLOUDY    44  38  79 NE5       29.93S
SPENCER        CLOUDY    43  39  86 NE10      29.91S
STORM LAKE *   CLOUDY    41  39  93 NE10      29.90S
$$

IAZ055>058-069>071-079>083-090>094-261800-
   SOUTHWEST IOWA

CITY           SKY/WX    TMP DP  RH WIND       PRES   REMARKS
ATLANTIC *     CLOUDY    45  41  87 N5        29.91R
AUDUBON *      CLOUDY    43  41  93 N8        29.90S
CLARINDA *     CLOUDY    45  43  93 VRB5      29.95R
COUNCIL BLFS * PTSUNNY   43  43 100 NW7       29.93R
CRESTON *      CLOUDY    43  43 100 W6        29.90S
HARLAN  *      CLOUDY    45  45 100 N6        29.94R
LAMONI         CLOUDY    45  41  86 W6        29.89R
RED OAK *      CLOUDY    45  41  87 W6        29.93R
SHENANDOAH *   CLOUDY    45  41  87 NW6       29.94S
$$

IAZ047>049-059>061-072>074-084-261800-
   CENTRAL IOWA

CITY           SKY/WX    TMP DP  RH WIND       PRES   REMARKS
AMES           CLOUDY    43  43 100 N8        29.89S
ANKENY *       CLOUDY    43  41  93 NW7       29.90S FOG
BOONE *        CLOUDY    41  41 100 N8        29.88S
CHARITON *     CLOUDY    43  43 100 NW8       29.88F
DES MOINES     CLOUDY    44  42  93 NW7       29.89S FOG
GRINNELL*      CLOUDY    43  42  97 NW8       29.87F FOG
MARSHALLTOWN   CLOUDY    43  42  97 N7        29.86S
NEWTON *       CLOUDY    43  43 100 NW7       29.87S FOG
PELLA *        CLOUDY    43  43  99 NW7       29.89S FOG
PERRY *        CLOUDY    43  42  97 NW7       29.89F
$$

IAZ004>006-015-016-023>025-035-036-261800-
   NORTH CENTRAL IOWA

CITY           SKY/WX    TMP DP  RH WIND       PRES   REMARKS
ALGONA *       PTSUNNY   39  39 100 N8        29.90S FOG     WCI  34
CLARION *      CLOUDY    41  41 100 N6        29.89S
ESTHERVILLE    CLOUDY    37  37 100 N10       29.90F WCI  30
FORT DODGE *   CLOUDY    41  37  87 NW6       29.91S
MASON CITY     CLOUDY    42  39  89 NE8       29.89S
FOREST CITY *  CLOUDY    41  41 100 NE6       29.89S
WEBSTER CITY * CLOUDY    41  39  93 N7        29.88R
IOWA FALLS *   CLOUDY    42  41  97 N6        29.88F
$$

IAZ007>011-017>019-026>030-037>042-050>054-066-261800-
   NORTHEAST IOWA

CITY           SKY/WX    TMP DP  RH WIND       PRES   REMARKS
CEDAR RAPIDS   FOG       45  45 100 NW5       29.82S VSB 1/4
CHARLES CITY * CLOUDY    41  41 100 NE9       29.87F FOG
CLINTON *      CLOUDY    54  53  97 S6        29.82F FOG
DECORAH *      FOG       39  39 100 N7        29.85F VSB 1/2 WCI  34
DUBUQUE        FOG       45  45 100 NE9       29.82F VSB<1/4
MONTICELLO *   FOG       46  46 100 NE5       29.83S VSB 1/2
OELWEIN *      FOG       41  41 100 N8        29.85F VSB 3/4
WATERLOO       CLOUDY    42  41  96 N10       29.86F FOG
$$

IAZ064-065-067-068-078-261800-
   EAST CENTRAL IOWA

CITY           SKY/WX    TMP DP  RH WIND       PRES   REMARKS
DAVENPORT      CLOUDY    54  52  93 S5        29.82S
IOWA CITY      CLOUDY    50  49  96 N5        29.84S FOG
MUSCATINE *    CLOUDY    54  52  94 SW8       29.82S FOG
QUAD CITIES    CLOUDY    55  51  86 SW9       29.81S
$$

IAZ062-063-075>077-085>089-095>099-261800-
   SOUTHEAST IOWA

CITY           SKY/WX    TMP DP  RH WIND       PRES   REMARKS
BURLINGTON     CLOUDY    49  47  93 W13       29.84R
FAIRFIELD *    CLOUDY    46  45  93 W10G16    29.85S FOG
FORT MADISON * CLOUDY    50  48  93 W8        29.85F
KEOKUK *       CLOUDY    50  46  87 W15       29.86S
OSKALOOSA *    CLOUDY    44  44  99 NW16      29.87S FOG
OTTUMWA        CLOUDY    46  45  96 W13       29.86S
WASHINGTON *   FOG       48  48 100 W10       29.85S VSB 1/2
$$

ABBREVIATIONS USED IN REMARKS
   TC - TEMPERATURES IN CELSIUS
  WCI - WIND CHILL INDEX
   HX - HEAT INDEX
  VSB - VISIBILITY
$$





USA.gov is the U.S. government's official web portal to all federal, state and local government web resources and services.